Date String (YYYY-MM-DD hh:mm:ss) UTC,Instrument flags,Ambient pressure (hPa),Sample flow (lpm),Bypass flow (lpm),Sample temperature (°C),Ambient temperature (°C),ASC tube jacket temperature (°C),LED temperature (°C),Box temperature (°C),Sample RH (%),Span deviation,Mass concentration (μg/m³),Mass concentration (μg/m³),Mass concentration (μg/m³)
DateTimeUTC,F1_M11,P_M11,Q1_M11,Q2_M11,T1_M11,T2_M11,T3_M11,T4_M11,T5_M11,U1_M11,ZSPAN_M11,X0_M11,X2_M11,X1_M11
2023-04-25 11:00:00,,0822.8,5.00,0.00,25.7,24.3,00.0,34.0,27.3,22.1,0000.0,0008.48,0003.60,0003.10
2023-04-25 11:01:00,,0822.8,4.99,0.00,25.7,24.3,00.0,34.0,27.3,22.1,0000.0,0008.42,0003.60,0003.10
2023-04-25 11:02:00,,0823.0,5.00,0.00,25.7,24.3,00.0,34.1,27.3,22.1,0000.0,0008.27,0003.57,0003.10
2023-04-25 11:03:00,,0823.1,5.00,0.00,25.7,24.3,00.0,34.1,27.3,22.1,0000.0,0008.26,0003.58,0003.10
2023-04-25 11:04:00,,0822.8,5.00,0.00,25.8,24.3,00.0,34.1,27.3,22.1,0000.0,0008.29,0003.59,0003.10
2023-04-25 11:05:00,,0822.9,4.99,0.00,25.8,24.3,00.0,34.1,27.3,22.1,0000.0,0007.85,0003.56,0003.10
2023-04-25 11:06:00,,0823.0,5.01,0.00,25.8,24.3,00.0,34.1,27.3,22.1,0000.0,0007.83,0003.56,0003.09
2023-04-25 11:07:00,,0822.9,5.01,0.00,25.8,24.3,00.0,34.1,27.3,22.1,0000.0,0008.10,0003.57,0003.09
2023-04-25 11:08:00,,0822.9,5.00,0.00,25.8,24.3,00.0,34.1,27.3,22.1,0000.0,0007.60,0003.55,0003.09
2023-04-25 11:09:00,,0822.8,4.99,0.00,25.8,24.3,00.0,34.1,27.3,22.1,0000.0,0007.46,0003.51,0003.11
2023-04-25 11:10:00,,0822.9,4.99,0.00,25.8,24.3,00.0,34.1,27.4,22.0,0000.0,0007.03,0003.55,0003.12
2023-04-25 11:11:00,,0823.0,5.02,0.00,25.8,24.3,00.0,34.1,27.4,22.0,0000.0,0006.37,0003.55,0003.13
2023-04-25 11:12:00,,0822.9,5.01,0.00,25.8,24.3,00.0,34.1,27.4,22.0,0000.0,0006.55,0003.57,0003.14
2023-04-25 11:13:00,,0822.9,4.99,0.00,25.8,24.3,00.0,34.1,27.4,22.0,0000.0,0006.63,0003.58,0003.14
2023-04-25 11:14:00,,0822.9,4.99,0.00,25.8,24.3,00.0,34.1,27.4,22.1,0000.0,0006.72,0003.59,0003.15
2023-04-25 11:15:00,,0823.0,5.00,0.00,25.8,24.3,00.0,34.1,27.4,22.1,0000.0,0007.28,0003.62,0003.17
2023-04-25 11:16:00,,0822.9,5.00,0.00,25.8,24.3,00.0,34.1,27.4,22.2,0000.0,0007.70,0003.71,0003.18
2023-04-25 11:17:00,,0823.0,5.01,0.00,25.8,24.3,00.0,34.1,27.4,22.2,0000.0,0007.82,0003.73,0003.18
2023-04-25 11:18:00,,0822.9,5.00,0.00,25.8,24.3,00.0,34.1,27.4,22.2,0000.0,0007.67,0003.76,0003.19
2023-04-25 11:19:00,,0823.1,5.01,0.00,25.8,24.2,00.0,34.1,27.4,22.2,0000.0,0007.66,0003.77,0003.20
2023-04-25 11:20:00,,0822.9,5.00,0.00,25.8,24.2,00.0,34.1,27.4,22.2,0000.0,0007.74,0003.77,0003.20
2023-04-25 11:21:00,,0823.0,5.00,0.00,25.8,24.2,00.0,34.1,27.4,22.1,0000.0,0007.86,0003.74,0003.18
2023-04-25 11:22:00,,0822.8,5.00,0.00,25.8,24.2,00.0,34.1,27.4,22.1,0000.0,0007.79,0003.72,0003.17
2023-04-25 11:23:00,,0823.0,5.00,0.00,25.8,24.2,00.0,34.1,27.4,22.1,0000.0,0007.82,0003.74,0003.17
2023-04-25 11:24:00,,0822.9,5.00,0.00,25.8,24.2,00.0,34.1,27.4,22.1,0000.0,0007.90,0003.79,0003.18
2023-04-25 11:25:00,,0822.9,5.00,0.00,25.8,24.2,00.0,34.1,27.4,22.0,0000.0,0007.85,0003.78,0003.17
2023-04-25 11:26:00,,0822.9,5.00,0.00,25.8,24.2,00.0,34.1,27.4,22.0,0000.0,0007.58,0003.77,0003.16
2023-04-25 11:27:00,,0822.9,5.00,0.00,25.8,24.2,00.0,34.1,27.4,22.0,0000.0,0007.22,0003.71,0003.15
2023-04-25 11:28:00,,0822.9,4.99,0.00,25.8,24.2,00.0,34.1,27.4,22.0,0000.0,0007.13,0003.70,0003.16
2023-04-25 11:29:00,,0823.1,4.99,0.00,25.8,24.2,00.0,34.1,27.4,22.2,0000.0,0007.08,0003.70,0003.16
2023-04-25 11:30:00,,0823.1,5.00,0.00,25.8,24.2,00.0,34.1,27.4,22.2,0000.0,0006.98,0003.70,0003.16
2023-04-25 11:31:00,,0823.0,5.00,0.00,25.8,24.2,00.0,34.1,27.4,22.2,0000.0,0006.83,0003.71,0003.17
2023-04-25 11:32:00,,0822.9,5.00,0.00,25.8,24.2,00.0,34.1,27.4,22.2,0000.0,0006.46,0003.74,0003.19
2023-04-25 11:33:00,,0823.1,5.00,0.00,25.7,24.2,00.0,34.1,27.4,22.2,0000.0,0006.65,0003.78,0003.20
2023-04-25 11:34:00,,0823.0,5.00,0.00,25.7,24.2,00.0,34.1,27.4,22.2,0000.0,0007.28,0003.79,0003.20
2023-04-25 11:35:00,,0822.9,5.00,0.00,25.7,24.1,00.0,34.1,27.4,22.2,0000.0,0007.39,0003.76,0003.19
2023-04-25 11:36:00,,0822.8,5.00,0.00,25.7,24.2,00.0,34.1,27.4,22.2,0000.0,0007.62,0003.79,0003.19
2023-04-25 11:37:00,,0823.1,5.00,0.00,25.7,24.1,00.0,34.1,27.4,22.2,0000.0,0007.53,0003.78,0003.20
2023-04-25 11:38:00,,0822.9,5.00,0.00,25.7,24.1,00.0,34.1,27.4,22.2,0000.0,0007.59,0003.77,0003.20
2023-04-25 11:39:00,,0823.1,5.00,0.00,25.7,24.1,00.0,34.1,27.4,22.1,0000.0,0007.62,0003.78,0003.20
2023-04-25 11:40:00,,0822.9,4.99,0.00,25.7,24.1,00.0,34.1,27.4,22.1,0000.0,0007.68,0003.79,0003.19
2023-04-25 11:41:00,,0823.0,5.00,0.00,25.7,24.1,00.0,34.1,27.3,22.1,0000.0,0007.65,0003.76,0003.17
2023-04-25 11:42:00,,0822.9,5.00,0.00,25.7,24.1,00.0,34.1,27.3,22.0,0000.0,0007.59,0003.73,0003.16
2023-04-25 11:43:00,,0822.8,5.00,0.00,25.7,24.1,00.0,34.1,27.3,22.0,0000.0,0007.54,0003.69,0003.14
2023-04-25 11:44:00,,0822.8,5.00,0.00,25.7,24.1,00.0,34.1,27.3,22.0,0000.0,0007.44,0003.65,0003.13
2023-04-25 11:45:00,,0822.9,5.01,0.00,25.7,24.1,00.0,34.1,27.3,22.0,0000.0,0006.82,0003.62,0003.12
2023-04-25 11:46:00,,0823.0,5.01,0.00,25.7,24.1,00.0,34.1,27.4,22.0,0000.0,0006.52,0003.62,0003.13
2023-04-25 11:47:00,,0822.9,4.99,0.00,25.7,24.1,00.0,34.1,27.3,22.0,0000.0,0006.23,0003.62,0003.12
2023-04-25 11:48:00,,0822.8,4.99,0.00,25.7,24.1,00.0,34.1,27.4,22.0,0000.0,0006.39,0003.63,0003.10
2023-04-25 11:49:00,,0822.8,4.99,0.00,25.7,24.1,00.0,34.1,27.3,22.0,0000.0,0006.29,0003.61,0003.08
2023-04-25 11:50:00,,0822.8,5.00,0.00,25.7,24.1,00.0,34.1,27.3,22.0,0000.0,0006.20,0003.60,0003.07
2023-04-25 11:51:00,,0822.9,5.00,0.00,25.7,24.1,00.0,34.1,27.3,21.9,0000.0,0006.03,0003.58,0003.08
2023-04-25 11:52:00,,0822.9,5.00,0.00,25.7,24.1,00.0,34.1,27.3,21.9,0000.0,0006.20,0003.60,0003.08
2023-04-25 11:53:00,,0822.8,5.00,0.00,25.7,24.1,00.0,34.1,27.3,22.0,0000.0,0006.53,0003.65,0003.07
2023-04-25 11:54:00,,0823.0,5.01,0.00,25.7,24.1,00.0,34.1,27.3,21.9,0000.0,0006.42,0003.64,0003.09
2023-04-25 11:55:00,,0822.9,5.00,0.00,25.7,24.1,00.0,34.0,27.3,21.9,0000.0,0006.43,0003.64,0003.09
2023-04-25 11:56:00,,0822.9,5.00,0.00,25.7,24.1,00.0,34.0,27.3,21.9,0000.0,0006.47,0003.64,0003.10
2023-04-25 11:57:00,,0822.9,5.00,0.00,25.7,24.1,00.0,34.0,27.3,21.8,0000.0,0006.47,0003.65,0003.09
2023-04-25 11:58:00,,0822.8,5.00,0.00,25.7,24.1,00.0,34.0,27.3,21.9,0000.0,0006.75,0003.63,0003.09
2023-04-25 11:59:00,,0822.9,5.00,0.00,25.7,24.0,00.0,34.0,27.3,21.8,0000.0,0006.50,0003.60,0003.08
